Multibeam Report for RR1003


Ship Name: Roger Revelle
Chief Scientist: Silver, Eli
University of California, Santa Cruz
Source Organization: Rolling Deck to Repository
Start Date: 2010-02-22
End Date: 2010-03-18


View ISO Metadata

Visit the full NCEI Bathymetry Viewer


Multibeam Bathymetry

Cruise Details

Project: How Is Rifting Exhuming the Youngest HP/UHP Rocks on Earth?
Instrument: Kongsberg EM122

Data Quality

Number of Files: 194
Number of Records: 268327
BATHYMETRY DATA Quantity Percentage
Number of Beams 115916400 100%
Number of Good Beams 111621983 96.3%
Number of Zero Beams 0 0%
Number of Flagged Beams 4294417 3.7%
AMPLITUDE DATA Quantity Percentage
Number of Beams 115916400 100%
Number of Good Beams 111621983 96.3%
Number of Zero Beams 0 0%
Number of Flagged Beams 4294417 3.7%
SIDESCAN DATA Quantity Percentage
Number of Pixels 274764800 100%
Number of Good Pixels 229836041 83.65%
Number of Zero Pixels 0 0%
Number of Flagged Pixels 44928759 16.35%

Navigation Totals

Total Time: 274.3763 hours
Total Track Length: 5444.1765 km
Average Speed: 19.842 km/hr (10.7138 knots)

Cruise Bounds

Northern Extent: 21.045437
Southern Extent: -34.42081
Western Extent: 121.31168
Eastern Extent: 169.09592

Limits

Minimum Sonar Depth 3.1285 Maximum Sonar Depth 8.1027
Minimum Altitude 201.4538 Maximum Altitude 6822.7061
Minimum Depth 84.7002 Maximum Depth 7028.731
Minimum Amplitude 0 Maximum Amplitude 8.9
Minimum Sidescan 0 Maximum Sidescan 28.33

File Information

Full Resolution Bathymetry as collected (raw): 190

Files File Size Description
0000_20100223_192625_RV_Revelle.all.mb58.gz 26.38MB Kongsberg multibeam vendor format
0001_20100228_201644_RV_Revelle.all.mb58.gz 15.83MB Kongsberg multibeam vendor format
0002_20100228_210239_RV_Revelle.all.mb58.gz 451.0KB Kongsberg multibeam vendor format
0003_20100228_210344_RV_Revelle.all.mb58.gz 41.80MB Kongsberg multibeam vendor format
0004_20100228_230353_RV_Revelle.all.mb58.gz 41.88MB Kongsberg multibeam vendor format
0005_20100301_010317_RV_Revelle.all.mb58.gz 65.74MB Kongsberg multibeam vendor format
0006_20100301_030306_RV_Revelle.all.mb58.gz 47.10MB Kongsberg multibeam vendor format
0007_20100301_050305_RV_Revelle.all.mb58.gz 41.59MB Kongsberg multibeam vendor format
0008_20100301_070309_RV_Revelle.all.mb58.gz 41.83MB Kongsberg multibeam vendor format
0009_20100301_090308_RV_Revelle.all.mb58.gz 41.90MB Kongsberg multibeam vendor format
0010_20100301_110309_RV_Revelle.all.mb58.gz 56.96MB Kongsberg multibeam vendor format
0011_20100301_130302_RV_Revelle.all.mb58.gz 67.47MB Kongsberg multibeam vendor format
0012_20100301_150302_RV_Revelle.all.mb58.gz 51.96MB Kongsberg multibeam vendor format
0013_20100301_163149_RV_Revelle.all.mb58.gz 170.01MB Kongsberg multibeam vendor format
0014_20100301_183136_RV_Revelle.all.mb58.gz 116.33MB Kongsberg multibeam vendor format
0015_20100301_203135_RV_Revelle.all.mb58.gz 147.00MB Kongsberg multibeam vendor format
0016_20100301_223133_RV_Revelle.all.mb58.gz 153.22MB Kongsberg multibeam vendor format
0017_20100302_003136_RV_Revelle.all.mb58.gz 169.00MB Kongsberg multibeam vendor format
0018_20100302_023136_RV_Revelle.all.mb58.gz 131.87MB Kongsberg multibeam vendor format
0019_20100302_043143_RV_Revelle.all.mb58.gz 1.13MB Kongsberg multibeam vendor format
0020_20100302_043358_RV_Revelle.all.mb58.gz 11.54MB Kongsberg multibeam vendor format
0021_20100302_053554_RV_Revelle.all.mb58.gz 27.60MB Kongsberg multibeam vendor format
0022_20100302_060309_RV_Revelle.all.mb58.gz 52.9KB Kongsberg multibeam vendor format
0023_20100302_060320_RV_Revelle.all.mb58.gz 39.60MB Kongsberg multibeam vendor format
0024_20100302_065515_RV_Revelle.all.mb58.gz 24.3KB Kongsberg multibeam vendor format
0025_20100302_065527_RV_Revelle.all.mb58.gz 10.50MB Kongsberg multibeam vendor format
0026_20100302_082550_RV_Revelle.all.mb58.gz 112.38MB Kongsberg multibeam vendor format
0027_20100302_102552_RV_Revelle.all.mb58.gz 21.96MB Kongsberg multibeam vendor format
0028_20100302_121331_RV_Revelle.all.mb58.gz 0.79MB Kongsberg multibeam vendor format
0029_20100302_121724_RV_Revelle.all.mb58.gz 89.73MB Kongsberg multibeam vendor format
0030_20100302_145105_RV_Revelle.all.mb58.gz 109.1KB Kongsberg multibeam vendor format
0031_20100302_145137_RV_Revelle.all.mb58.gz 37.07MB Kongsberg multibeam vendor format
0032_20100302_152716_RV_Revelle.all.mb58.gz 209.49MB Kongsberg multibeam vendor format
0033_20100302_172705_RV_Revelle.all.mb58.gz 25.54MB Kongsberg multibeam vendor format
0034_20100302_175313_RV_Revelle.all.mb58.gz 171.83MB Kongsberg multibeam vendor format
0035_20100302_195309_RV_Revelle.all.mb58.gz 153.70MB Kongsberg multibeam vendor format
0036_20100302_215308_RV_Revelle.all.mb58.gz 170.71MB Kongsberg multibeam vendor format
0037_20100302_235307_RV_Revelle.all.mb58.gz 152.33MB Kongsberg multibeam vendor format
0038_20100303_015307_RV_Revelle.all.mb58.gz 178.38MB Kongsberg multibeam vendor format
0039_20100303_035307_RV_Revelle.all.mb58.gz 1.30MB Kongsberg multibeam vendor format
0040_20100303_035402_RV_Revelle.all.mb58.gz 112.26MB Kongsberg multibeam vendor format
0041_20100303_063138_RV_Revelle.all.mb58.gz 43.57MB Kongsberg multibeam vendor format
0042_20100303_070604_RV_Revelle.all.mb58.gz 95.18MB Kongsberg multibeam vendor format
0043_20100303_090350_RV_Revelle.all.mb58.gz 3.46MB Kongsberg multibeam vendor format
0044_20100303_090637_RV_Revelle.all.mb58.gz 46.83MB Kongsberg multibeam vendor format
0045_20100303_093703_RV_Revelle.all.mb58.gz 127.79MB Kongsberg multibeam vendor format
0046_20100303_114206_RV_Revelle.all.mb58.gz 1.08MB Kongsberg multibeam vendor format
0047_20100303_114533_RV_Revelle.all.mb58.gz 23.32MB Kongsberg multibeam vendor format
0048_20100303_120042_RV_Revelle.all.mb58.gz 128.02MB Kongsberg multibeam vendor format
0049_20100303_135947_RV_Revelle.all.mb58.gz 10.4KB Kongsberg multibeam vendor format
0050_20100303_140026_RV_Revelle.all.mb58.gz 64.70MB Kongsberg multibeam vendor format
0051_20100303_143939_RV_Revelle.all.mb58.gz 196.20MB Kongsberg multibeam vendor format
0052_20100303_163937_RV_Revelle.all.mb58.gz 198.95MB Kongsberg multibeam vendor format
0053_20100303_183937_RV_Revelle.all.mb58.gz 211.95MB Kongsberg multibeam vendor format
0054_20100303_203937_RV_Revelle.all.mb58.gz 220.45MB Kongsberg multibeam vendor format
0055_20100303_223936_RV_Revelle.all.mb58.gz 94.60MB Kongsberg multibeam vendor format
0056_20100304_003945_RV_Revelle.all.mb58.gz 23.24MB Kongsberg multibeam vendor format
0057_20100304_013058_RV_Revelle.all.mb58.gz 39.45MB Kongsberg multibeam vendor format
0058_20100304_033109_RV_Revelle.all.mb58.gz 1.34MB Kongsberg multibeam vendor format
0060_20100304_033507_RV_Revelle.all.mb58.gz 1.25MB Kongsberg multibeam vendor format
0061_20100304_034017_RV_Revelle.all.mb58.gz 38.89MB Kongsberg multibeam vendor format
0062_20100304_054020_RV_Revelle.all.mb58.gz 44.10MB Kongsberg multibeam vendor format
0063_20100304_074016_RV_Revelle.all.mb58.gz 64.83MB Kongsberg multibeam vendor format
0064_20100304_094017_RV_Revelle.all.mb58.gz 53.93MB Kongsberg multibeam vendor format
0065_20100304_114018_RV_Revelle.all.mb58.gz 42.60MB Kongsberg multibeam vendor format
0066_20100304_124703_RV_Revelle.all.mb58.gz 6.03MB Kongsberg multibeam vendor format
0067_20100304_125848_RV_Revelle.all.mb58.gz 115.08MB Kongsberg multibeam vendor format
0068_20100304_145837_RV_Revelle.all.mb58.gz 117.75MB Kongsberg multibeam vendor format
0069_20100304_165841_RV_Revelle.all.mb58.gz 116.25MB Kongsberg multibeam vendor format
0070_20100304_185841_RV_Revelle.all.mb58.gz 108.65MB Kongsberg multibeam vendor format
0071_20100305_040904_RV_Revelle.all.mb58.gz 34.88MB Kongsberg multibeam vendor format
0072_20100305_114857_RV_Revelle.all.mb58.gz 70.25MB Kongsberg multibeam vendor format
0073_20100305_130525_RV_Revelle.all.mb58.gz 43.21MB Kongsberg multibeam vendor format
0074_20100305_135832_RV_Revelle.all.mb58.gz 119.81MB Kongsberg multibeam vendor format
0075_20100305_155829_RV_Revelle.all.mb58.gz 117.93MB Kongsberg multibeam vendor format
0076_20100305_175831_RV_Revelle.all.mb58.gz 117.41MB Kongsberg multibeam vendor format
0077_20100306_023810_RV_Revelle.all.mb58.gz 0.54MB Kongsberg multibeam vendor format
0078_20100306_023847_RV_Revelle.all.mb58.gz 76.59MB Kongsberg multibeam vendor format
0079_20100306_092205_RV_Revelle.all.mb58.gz 27.89MB Kongsberg multibeam vendor format
0080_20100306_163033_RV_Revelle.all.mb58.gz 125.89MB Kongsberg multibeam vendor format
0081_20100306_183029_RV_Revelle.all.mb58.gz 132.43MB Kongsberg multibeam vendor format
0082_20100306_203030_RV_Revelle.all.mb58.gz 131.82MB Kongsberg multibeam vendor format
0083_20100306_223030_RV_Revelle.all.mb58.gz 86.96MB Kongsberg multibeam vendor format
0084_20100307_000125_RV_Revelle.all.mb58.gz 125.44MB Kongsberg multibeam vendor format
0085_20100307_020117_RV_Revelle.all.mb58.gz 112.42MB Kongsberg multibeam vendor format
0086_20100307_040116_RV_Revelle.all.mb58.gz 54.91MB Kongsberg multibeam vendor format
0087_20100307_051950_RV_Revelle.all.mb58.gz 5.44MB Kongsberg multibeam vendor format
0088_20100307_052617_RV_Revelle.all.mb58.gz 1.66MB Kongsberg multibeam vendor format
0089_20100307_053602_RV_Revelle.all.mb58.gz 2.99MB Kongsberg multibeam vendor format
0090_20100307_053927_RV_Revelle.all.mb58.gz 43.03MB Kongsberg multibeam vendor format
0091_20100307_063426_RV_Revelle.all.mb58.gz 16.58MB Kongsberg multibeam vendor format
0092_20100307_065712_RV_Revelle.all.mb58.gz 22.42MB Kongsberg multibeam vendor format
0093_20100307_073102_RV_Revelle.all.mb58.gz 27.96MB Kongsberg multibeam vendor format
0094_20100307_080353_RV_Revelle.all.mb58.gz 1.47MB Kongsberg multibeam vendor format
0095_20100307_080616_RV_Revelle.all.mb58.gz 2.19MB Kongsberg multibeam vendor format
0096_20100307_080943_RV_Revelle.all.mb58.gz 0.67MB Kongsberg multibeam vendor format
0097_20100307_081038_RV_Revelle.all.mb58.gz 7.24MB Kongsberg multibeam vendor format
0098_20100307_082055_RV_Revelle.all.mb58.gz 0.54MB Kongsberg multibeam vendor format
0099_20100307_082151_RV_Revelle.all.mb58.gz 1.15MB Kongsberg multibeam vendor format
0100_20100307_082337_RV_Revelle.all.mb58.gz 45.77MB Kongsberg multibeam vendor format
0101_20100307_093627_RV_Revelle.all.mb58.gz 42.54MB Kongsberg multibeam vendor format
0102_20100307_102121_RV_Revelle.all.mb58.gz 77.75MB Kongsberg multibeam vendor format
0103_20100307_113838_RV_Revelle.all.mb58.gz 114.79MB Kongsberg multibeam vendor format
0104_20100307_133837_RV_Revelle.all.mb58.gz 8.50MB Kongsberg multibeam vendor format
0105_20100307_134753_RV_Revelle.all.mb58.gz 117.93MB Kongsberg multibeam vendor format
0106_20100307_154745_RV_Revelle.all.mb58.gz 86.13MB Kongsberg multibeam vendor format
0107_20100307_171712_RV_Revelle.all.mb58.gz 105.72MB Kongsberg multibeam vendor format
0108_20100307_191719_RV_Revelle.all.mb58.gz 71.97MB Kongsberg multibeam vendor format
0109_20100307_211710_RV_Revelle.all.mb58.gz 84.85MB Kongsberg multibeam vendor format
0110_20100307_231719_RV_Revelle.all.mb58.gz 28.10MB Kongsberg multibeam vendor format
0111_20100308_000036_RV_Revelle.all.mb58.gz 73.72MB Kongsberg multibeam vendor format
0112_20100308_012226_RV_Revelle.all.mb58.gz 115.60MB Kongsberg multibeam vendor format
0113_20100308_032219_RV_Revelle.all.mb58.gz 72.99MB Kongsberg multibeam vendor format
0114_20100309_221501_RV_Revelle.all.mb58.gz 352.1KB Kongsberg multibeam vendor format
0115_20100309_224316_RV_Revelle.all.mb58.gz 160.98MB Kongsberg multibeam vendor format
0116_20100310_004314_RV_Revelle.all.mb58.gz 152.00MB Kongsberg multibeam vendor format
0117_20100310_024315_RV_Revelle.all.mb58.gz 112.85MB Kongsberg multibeam vendor format
0118_20100310_044320_RV_Revelle.all.mb58.gz 89.98MB Kongsberg multibeam vendor format
0119_20100310_064319_RV_Revelle.all.mb58.gz 47.49MB Kongsberg multibeam vendor format
0120_20100310_084328_RV_Revelle.all.mb58.gz 80.09MB Kongsberg multibeam vendor format
0121_20100310_104317_RV_Revelle.all.mb58.gz 72.89MB Kongsberg multibeam vendor format
0122_20100310_124312_RV_Revelle.all.mb58.gz 86.02MB Kongsberg multibeam vendor format
0123_20100310_144324_RV_Revelle.all.mb58.gz 47.11MB Kongsberg multibeam vendor format
0124_20100310_164321_RV_Revelle.all.mb58.gz 40.41MB Kongsberg multibeam vendor format
0125_20100310_182641_RV_Revelle.all.mb58.gz 18.90MB Kongsberg multibeam vendor format
0126_20100310_190918_RV_Revelle.all.mb58.gz 74.97MB Kongsberg multibeam vendor format
0127_20100310_210919_RV_Revelle.all.mb58.gz 63.16MB Kongsberg multibeam vendor format
0128_20100310_230928_RV_Revelle.all.mb58.gz 56.75MB Kongsberg multibeam vendor format
0129_20100311_010923_RV_Revelle.all.mb58.gz 67.98MB Kongsberg multibeam vendor format
0130_20100311_030927_RV_Revelle.all.mb58.gz 66.58MB Kongsberg multibeam vendor format
0131_20100311_050921_RV_Revelle.all.mb58.gz 67.04MB Kongsberg multibeam vendor format
0132_20100311_070920_RV_Revelle.all.mb58.gz 66.08MB Kongsberg multibeam vendor format
0133_20100311_090930_RV_Revelle.all.mb58.gz 66.71MB Kongsberg multibeam vendor format
0134_20100311_110918_RV_Revelle.all.mb58.gz 67.47MB Kongsberg multibeam vendor format
0135_20100311_130926_RV_Revelle.all.mb58.gz 65.07MB Kongsberg multibeam vendor format
0136_20100311_150927_RV_Revelle.all.mb58.gz 63.18MB Kongsberg multibeam vendor format
0137_20100311_170922_RV_Revelle.all.mb58.gz 61.78MB Kongsberg multibeam vendor format
0138_20100311_190925_RV_Revelle.all.mb58.gz 57.51MB Kongsberg multibeam vendor format
0139_20100311_210922_RV_Revelle.all.mb58.gz 56.70MB Kongsberg multibeam vendor format
0140_20100311_230925_RV_Revelle.all.mb58.gz 48.45MB Kongsberg multibeam vendor format
0141_20100312_010927_RV_Revelle.all.mb58.gz 46.83MB Kongsberg multibeam vendor format
0142_20100312_030928_RV_Revelle.all.mb58.gz 47.05MB Kongsberg multibeam vendor format
0143_20100312_050930_RV_Revelle.all.mb58.gz 47.73MB Kongsberg multibeam vendor format
0144_20100312_070918_RV_Revelle.all.mb58.gz 46.74MB Kongsberg multibeam vendor format
0145_20100312_090920_RV_Revelle.all.mb58.gz 48.03MB Kongsberg multibeam vendor format
0146_20100312_110926_RV_Revelle.all.mb58.gz 48.52MB Kongsberg multibeam vendor format
0147_20100312_130929_RV_Revelle.all.mb58.gz 31.79MB Kongsberg multibeam vendor format
0148_20100312_142655_RV_Revelle.all.mb58.gz 35.84MB Kongsberg multibeam vendor format
0149_20100312_173047_RV_Revelle.all.mb58.gz 26.37MB Kongsberg multibeam vendor format
0150_20100314_084627_RV_Revelle.all.mb58.gz 459.9KB Kongsberg multibeam vendor format
0151_20100314_090217_RV_Revelle.all.mb58.gz 18.38MB Kongsberg multibeam vendor format
0152_20100314_095629_RV_Revelle.all.mb58.gz 40.49MB Kongsberg multibeam vendor format
0153_20100314_115626_RV_Revelle.all.mb58.gz 40.87MB Kongsberg multibeam vendor format
0154_20100314_135622_RV_Revelle.all.mb58.gz 40.58MB Kongsberg multibeam vendor format
0155_20100314_155624_RV_Revelle.all.mb58.gz 40.34MB Kongsberg multibeam vendor format
0156_20100314_175628_RV_Revelle.all.mb58.gz 40.25MB Kongsberg multibeam vendor format
0157_20100314_195623_RV_Revelle.all.mb58.gz 40.58MB Kongsberg multibeam vendor format
0158_20100314_215621_RV_Revelle.all.mb58.gz 39.33MB Kongsberg multibeam vendor format
0159_20100314_235628_RV_Revelle.all.mb58.gz 40.49MB Kongsberg multibeam vendor format
0160_20100315_015629_RV_Revelle.all.mb58.gz 40.39MB Kongsberg multibeam vendor format
0161_20100315_035630_RV_Revelle.all.mb58.gz 39.62MB Kongsberg multibeam vendor format
0162_20100315_055626_RV_Revelle.all.mb58.gz 40.01MB Kongsberg multibeam vendor format
0163_20100315_075622_RV_Revelle.all.mb58.gz 40.62MB Kongsberg multibeam vendor format
0164_20100315_095629_RV_Revelle.all.mb58.gz 41.04MB Kongsberg multibeam vendor format
0165_20100315_115626_RV_Revelle.all.mb58.gz 38.77MB Kongsberg multibeam vendor format
0166_20100315_135633_RV_Revelle.all.mb58.gz 39.11MB Kongsberg multibeam vendor format
0167_20100315_155627_RV_Revelle.all.mb58.gz 47.99MB Kongsberg multibeam vendor format
0168_20100315_175630_RV_Revelle.all.mb58.gz 42.11MB Kongsberg multibeam vendor format
0169_20100315_195628_RV_Revelle.all.mb58.gz 39.08MB Kongsberg multibeam vendor format
0170_20100315_215626_RV_Revelle.all.mb58.gz 44.40MB Kongsberg multibeam vendor format
0171_20100315_235634_RV_Revelle.all.mb58.gz 39.06MB Kongsberg multibeam vendor format
0172_20100316_015631_RV_Revelle.all.mb58.gz 48.98MB Kongsberg multibeam vendor format
0173_20100316_035632_RV_Revelle.all.mb58.gz 56.17MB Kongsberg multibeam vendor format
0174_20100316_055620_RV_Revelle.all.mb58.gz 38.77MB Kongsberg multibeam vendor format
0175_20100316_075622_RV_Revelle.all.mb58.gz 38.39MB Kongsberg multibeam vendor format
0176_20100316_095626_RV_Revelle.all.mb58.gz 39.14MB Kongsberg multibeam vendor format
0177_20100316_115634_RV_Revelle.all.mb58.gz 38.31MB Kongsberg multibeam vendor format
0178_20100316_135621_RV_Revelle.all.mb58.gz 39.09MB Kongsberg multibeam vendor format
0179_20100316_155628_RV_Revelle.all.mb58.gz 38.86MB Kongsberg multibeam vendor format
0180_20100316_175633_RV_Revelle.all.mb58.gz 38.88MB Kongsberg multibeam vendor format
0181_20100316_195620_RV_Revelle.all.mb58.gz 39.58MB Kongsberg multibeam vendor format
0182_20100316_215631_RV_Revelle.all.mb58.gz 39.05MB Kongsberg multibeam vendor format
0183_20100316_235623_RV_Revelle.all.mb58.gz 50.67MB Kongsberg multibeam vendor format
0184_20100317_015619_RV_Revelle.all.mb58.gz 39.12MB Kongsberg multibeam vendor format
0185_20100317_031811_RV_Revelle.all.mb58.gz 15.56MB Kongsberg multibeam vendor format
0186_20100317_034815_RV_Revelle.all.mb58.gz 7.55MB Kongsberg multibeam vendor format
0187_20100317_040324_RV_Revelle.all.mb58.gz 60.39MB Kongsberg multibeam vendor format
0188_20100317_060322_RV_Revelle.all.mb58.gz 132.12MB Kongsberg multibeam vendor format
0189_20100317_080324_RV_Revelle.all.mb58.gz 83.37MB Kongsberg multibeam vendor format
0190_20100317_100329_RV_Revelle.all.mb58.gz 40.06MB Kongsberg multibeam vendor format

Metadata Files: 3

Files File Size Description
RR1003_Multibeam.xml NGDC created ISO metadata
em122_bag_info.tar.gz 9.3KB Additional cruise information
xbt_bag_info.tar.gz 2.1KB Additional cruise information

Ancillary Files: 1

Files File Size Description
xbt.tar.gz 365.6KB Expendable Bathythermograph (XBT) data